| time (UTC) | temp F | wind direction | speed MPH | gust MPH | rain 1hr in | rain 24hr in | rain mn in | humidity % | barometer mb |
| 20260504045942 | 44 | 48 | 0.0 | 0.0 | 0.00 | 0.94 | 0.00 | 86 | 1012.6 |
| 20260504044935 | 43 | 48 | 0.0 | 0.0 | 0.00 | 0.94 | 0.00 | 86 | 1012.6 |
| 20260504044025 | 44 | 48 | 0.0 | 0.0 | 0.00 | 0.94 | 0.00 | 86 | 1012.6 |
| 20260504042943 | 44 | 48 | 0.0 | 0.0 | 0.00 | 0.94 | 0.00 | 85 | 1012.6 |
| 20260504041931 | 44 | 48 | 0.0 | 0.0 | 0.00 | 0.94 | 0.00 | 85 | 1012.6 |
| 20260504040947 | 44 | 48 | 0.0 | 0.0 | 0.00 | 0.94 | 0.00 | 84 | 1012.6 |
| 20260504035951 | 45 | 48 | 0.0 | 0.0 | 0.00 | 0.94 | 0.00 | 84 | 1012.7 |
| 20260504034944 | 45 | 48 | 0.0 | 0.0 | 0.00 | 0.94 | 0.00 | 84 | 1012.8 |
| 20260504033933 | 45 | 48 | 0.0 | 0.0 | 0.00 | 0.94 | 0.00 | 83 | 1012.8 |
| 20260504032937 | 46 | 48 | 0.0 | 0.0 | 0.00 | 0.94 | 0.00 | 82 | 1012.8 |
| 20260504032026 | 46 | 48 | 0.0 | 0.0 | 0.00 | 0.94 | 0.00 | 82 | 1012.9 |
| 20260504030947 | 46 | 48 | 0.0 | 0.0 | 0.00 | 0.94 | 0.00 | 83 | 1012.8 |
| 20260504025950 | 47 | 48 | 0.0 | 0.0 | 0.00 | 0.94 | 0.00 | 82 | 1012.8 |
| 20260504024939 | 47 | 48 | 0.0 | 0.0 | 0.00 | 0.94 | 0.00 | 82 | 1012.9 |
| 20260504023932 | 47 | 48 | 0.0 | 0.0 | 0.00 | 0.94 | 0.00 | 82 | 1013.0 |
| 20260504022935 | 47 | 48 | 0.0 | 0.0 | 0.00 | 0.94 | 0.00 | 82 | 1013.0 |
| 20260504021944 | 47 | 48 | 0.0 | 0.0 | 0.00 | 0.94 | 0.00 | 82 | 1013.1 |
| 20260504020918 | 47 | 48 | 0.0 | 0.0 | 0.00 | 0.94 | 0.00 | 82 | 1013.0 |
| 20260504015921 | 47 | 48 | 0.0 | 0.0 | 0.00 | 0.94 | 0.00 | 82 | 1013.0 |
| 20260504014913 | 48 | 49 | 0.0 | 1.0 | 0.00 | 0.94 | 0.00 | 82 | 1013.1 |
| 20260504013923 | 48 | 50 | 0.0 | 0.0 | 0.00 | 0.94 | 0.00 | 81 | 1013.1 |
| 20260504012925 | 48 | 50 | 0.0 | 0.0 | 0.00 | 0.94 | 0.00 | 81 | 1013.3 |
| 20260504010916 | 49 | 51 | 0.0 | 0.0 | 0.00 | 0.94 | 0.00 | 81 | 1013.4 |
| 20260504005920 | 49 | 51 | 0.0 | 0.0 | 0.00 | 0.94 | 0.00 | 80 | 1013.4 |
| 20260504004929 | 49 | 51 | 0.0 | 0.0 | 0.00 | 0.94 | 0.00 | 80 | 1013.5 |
| 20260504003921 | 50 | 51 | 0.0 | 0.0 | 0.00 | 0.94 | 0.00 | 79 | 1013.5 |
| 20260504002925 | 50 | 51 | 0.0 | 3.0 | 0.00 | 0.94 | 0.00 | 79 | 1013.7 |
| 20260504001913 | 50 | 54 | 1.0 | 5.0 | 0.00 | 0.94 | 0.00 | 80 | 1013.7 |
| 20260504000930 | 49 | 55 | 0.0 | 0.0 | 0.00 | 0.94 | 0.00 | 81 | 1013.8 |
| 20260503235917 | 50 | 55 | 0.0 | 0.0 | 0.00 | 0.94 | 0.19 | 81 | 1013.9 |
| 20260503234926 | 50 | 55 | 0.0 | 0.0 | 0.00 | 0.94 | 0.19 | 80 | 1014.0 |
| 20260503233914 | 51 | 55 | 0.0 | 0.0 | 0.00 | 0.94 | 0.19 | 79 | 1014.1 |
| 20260503232918 | 51 | 55 | 0.0 | 0.0 | 0.00 | 0.94 | 0.19 | 79 | 1014.1 |
| 20260503231910 | 52 | 55 | 0.0 | 0.0 | 0.00 | 0.94 | 0.19 | 79 | 1014.0 |
| 20260503230919 | 52 | 55 | 0.0 | 0.0 | 0.00 | 0.94 | 0.19 | 79 | 1014.2 |
| 20260503225923 | 52 | 55 | 0.0 | 0.0 | 0.00 | 0.94 | 0.19 | 77 | 1014.1 |
| 20260503224917 | 52 | 55 | 0.0 | 0.0 | 0.00 | 0.94 | 0.19 | 77 | 1014.0 |
| 20260503223927 | 52 | 55 | 0.0 | 0.0 | 0.00 | 0.94 | 0.19 | 77 | 1014.0 |
| 20260503222928 | 52 | 55 | 0.0 | 0.0 | 0.00 | 0.94 | 0.19 | 78 | 1014.2 |
| 20260503221915 | 52 | 55 | 0.0 | 0.0 | 0.00 | 0.94 | 0.19 | 77 | 1014.2 |
| 20260503220929 | 52 | 55 | 0.0 | 0.0 | 0.00 | 0.94 | 0.19 | 77 | 1014.1 |
| 20260503215929 | 53 | 55 | 0.0 | 0.0 | 0.00 | 0.94 | 0.19 | 77 | 1014.1 |
| 20260503214919 | 53 | 55 | 0.0 | 0.0 | 0.00 | 0.94 | 0.19 | 77 | 1014.1 |
| 20260503213930 | 53 | 55 | 0.0 | 0.0 | 0.00 | 0.94 | 0.19 | 77 | 1014.1 |
| 20260503212924 | 53 | 55 | 0.0 | 0.0 | 0.00 | 0.94 | 0.19 | 77 | 1014.2 |
| 20260503211913 | 53 | 55 | 0.0 | 0.0 | 0.00 | 0.94 | 0.19 | 77 | 1014.2 |
| 20260503210924 | 53 | 55 | 0.0 | 0.0 | 0.00 | 0.94 | 0.19 | 77 | 1014.1 |
| 20260503205926 | 53 | 55 | 0.0 | 0.0 | 0.00 | 0.94 | 0.19 | 76 | 1013.9 |
| 20260503204920 | 54 | 55 | 0.0 | 0.0 | 0.00 | 0.94 | 0.19 | 76 | 1013.8 |
| 20260503203931 | 54 | 55 | 0.0 | 0.0 | 0.00 | 0.94 | 0.19 | 75 | 1013.8 |
| 20260503202934 | 54 | 55 | 0.0 | 6.0 | 0.00 | 0.94 | 0.19 | 74 | 1013.7 |
| 20260503201943 | 55 | 254 | 0.0 | 0.0 | 0.00 | 0.94 | 0.19 | 73 | 1013.5 |
| 20260503200933 | 55 | 254 | 0.0 | 0.0 | 0.00 | 0.94 | 0.19 | 72 | 1013.4 |
| 20260503195941 | 56 | 254 | 0.0 | 0.0 | 0.00 | 0.94 | 0.19 | 73 | 1013.3 |
| 20260503194950 | 56 | 254 | 0.0 | 0.0 | 0.00 | 0.94 | 0.19 | 72 | 1013.1 |
| 20260503193938 | 56 | 252 | 0.0 | 4.0 | 0.00 | 0.94 | 0.19 | 71 | 1013.0 |
| 20260503192942 | 56 | 248 | 1.0 | 5.0 | 0.00 | 0.94 | 0.19 | 71 | 1012.9 |
| 20260503191951 | 57 | 246 | 0.0 | 0.0 | 0.00 | 0.94 | 0.19 | 71 | 1012.8 |
| 20260503190943 | 58 | 244 | 0.0 | 0.0 | 0.00 | 0.94 | 0.19 | 70 | 1012.7 |
| 20260503185947 | 58 | 244 | 0.0 | 0.0 | 0.00 | 0.94 | 0.19 | 69 | 1012.6 |
| 20260503184934 | 58 | 244 | 0.0 | 0.0 | 0.00 | 0.94 | 0.19 | 68 | 1012.4 |
| 20260503183943 | 59 | 256 | 0.0 | 0.0 | 0.00 | 0.94 | 0.19 | 67 | 1012.4 |
| 20260503182945 | 59 | 255 | 1.0 | 6.0 | 0.00 | 0.94 | 0.19 | 66 | 1012.4 |
| 20260503182033 | 59 | 196 | 0.0 | 11.0 | 0.00 | 0.94 | 0.19 | 65 | 1012.4 |
| 20260503180939 | 60 | 212 | 0.0 | 9.0 | 0.00 | 0.94 | 0.19 | 65 | 1012.4 |
| 20260503175946 | 60 | 192 | 0.0 | 7.0 | 0.00 | 0.94 | 0.19 | 64 | 1012.3 |
| 20260503174934 | 60 | 184 | 0.0 | 4.0 | 0.00 | 0.94 | 0.19 | 64 | 1012.1 |
| 20260503173943 | 61 | 192 | 0.0 | 7.0 | 0.00 | 0.94 | 0.19 | 63 | 1012.1 |
| 20260503172945 | 62 | 195 | 0.0 | 9.0 | 0.00 | 0.94 | 0.19 | 61 | 1012.2 |
| 20260503170942 | 62 | 254 | 1.0 | 10.0 | 0.00 | 0.94 | 0.19 | 60 | 1012.2 |
| 20260503150943 | 63 | 267 | 2.0 | 7.0 | 0.00 | 1.50 | 0.19 | 60 | 1012.2 |
| 20260503130914 | 62 | 234 | 4.0 | 13.0 | 0.00 | 1.54 | 0.19 | 64 | 1013.0 |
| 20260503080920 | 51 | 222 | 0.0 | 0.0 | 0.28 | 3.74 | 0.17 | 93 | 1015.1 |
| 20260503072921 | 49 | 222 | 0.0 | 0.0 | 0.47 | 4.09 | 0.17 | 93 | 1014.9 |